Dewpoint
68 66 68 64 53 45 42 46 49 49 50 53 53 52 52 54 55 54 62 59 61 64 67 70 73 73 72 73 73 73 73 72 73 72 71 71 71 72 71 71 71 72 72 72 72 72 72 72 71
64 64 64 57 47 40 41 49 49 52 54 54 54 54 54 58 62 64 60 61 62 64 66 67 73 74 72 72 73 72 72 72 72 71 71 72 71 71 71 71 71 71 72 71 71 71 72 72 72
64 65 58 53 43 40 41 49 52 53 54 54 54 56 56 59 63 62 61 63 62 64 65 68 73 73 73 71 71 72 71 71 71 71 71 71 71 71 71 70 71 71 71 71 71 70 71 71 72
60 57 57 46 42 45 47 50 52 52 53 54 54 55 61 64 63 63 62 62 61 63 64 72 72 72 72 72 71 71 71 71 71 71 71 71 70 71 70 70 71 72 71 71 71 69 70 70 70
57 54 47 43 43 47 48 52 53 53 54 53 54 56 60 65 65 64 62 61 62 63 64 69 73 72 71 72 72 72 71 71 71 71 71 70 70 70 70 70 71 72 71 71 71 70 69 69 69
50 51 41 36 39 45 49 52 52 53 54 55 54 56 63 66 64 63 61 61 62 61 64 67 72 72 71 71 71 71 71 71 71 71 71 71 71 72 71 71 72 72 71 71 71 70 70 69 70
46 48 42 41 42 43 48 52 50 50 53 53 55 57 64 64 63 63 61 62 62 62 64 67 67 71 71 71 71 71 70 70 71 71 71 71 71 71 71 71 72 71 72 71 70 70 70 69 69
46 48 41 41 40 42 49 50 53 52 53 56 57 56 61 64 64 63 61 62 63 64 65 66 69 70 70 70 72 73 72 71 71 71 71 72 71 71 71 71 72 72 71 71 70 70 70 70 70
49 41 35 37 37 41 49 49 54 55 53 55 57 56 60 66 65 62 61 62 64 66 66 65 65 69 71 70 71 72 71 72 72 72 72 72 68 68 69 70 72 72 71 71 70 70 71 70 71
42 36 36 40 39 40 47 50 52 53 53 55 59 61 65 67 66 61 61 62 63 65 66 65 64 68 69 66 70 70 68 69 68 67 69 70 67 68 68 70 71 72 70 70 70 69 70 69 67
40 34 36 38 40 41 44 49 51 50 49 52 56 61 65 66 64 62 62 61 62 63 64 65 65 66 66 67 69 68 67 66 66 72 71 70 67 66 64 66 69 69 70 70 67 69 69 68 67
36 35 32 36 39 42 43 49 48 50 50 53 56 61 65 66 62 61 60 60 60 62 63 66 69 67 67 66 66 66 65 65 64 67 70 69 66 64 65 68 71 71 68 68 70 70 68 69 68
34 31 30 29 32 35 46 47 47 50 53 55 58 61 63 62 61 60 60 60 61 62 63 65 66 68 68 68 66 67 66 65 64 67 68 66 64 66 67 67 70 70 71 70 71 70 70 68 68
29 30 30 30 39 43 43 45 48 50 54 56 58 59 59 60 59 60 59 59 61 61 62 63 65 68 68 68 68 68 67 66 64 65 66 69 67 68 67 68 68 70 71 71 69 69 70 69 66
29 25 27 28 42 43 45 38 43 52 54 56 56 57 57 59 59 60 60 60 61 61 62 62 65 67 68 68 69 67 66 66 63 64 68 70 69 70 71 67 66 65 67 72 71 70 70 69 68
27 22 20 24 31 41 46 28 40 51 52 54 54 56 57 58 59 60 60 61 61 61 62 62 63 64 67 66 67 66 66 66 64 62 65 69 70 71 70 66 65 67 70 69 69 70 69 69 67
22 19 20 21 28 36 38 30 33 40 51 51 55 56 56 57 59 60 61 61 62 63 64 63 63 63 65 66 67 68 67 66 64 63 64 69 70 70 70 66 65 68 67 69 68 68 69 68 67
21 17 19 18 19 22 27 37 41 39 44 48 54 55 56 56 58 60 61 61 62 63 65 65 63 63 65 65 68 68 66 65 64 65 64 67 69 69 69 66 67 68 66 67 68 71 69 69 67
18 17 18 17 20 25 36 41 44 45 46 48 52 54 55 56 57 59 60 61 62 63 65 65 64 64 66 67 65 67 67 66 66 66 66 68 68 68 70 66 64 67 67 68 69 68 66 65 68
18 17 17 16 21 19 33 43 46 49 49 49 49 50 52 54 56 58 60 61 62 63 64 66 65 66 67 65 66 66 67 67 67 67 68 70 69 69 69 68 66 64 64 68 70 69 65 64 66
18 17 16 16 18 18 17 36 45 47 50 51 52 51 50 50 53 57 59 61 61 62 64 66 67 67 67 66 68 68 70 70 69 69 69 69 69 69 69 69 69 65 68 63 69 69 68 62 63
13 18 16 17 17 15 17 28 42 45 47 50 53 54 53 52 48 54 57 60 61 62 63 66 68 68 68 68 67 67 67 67 65 66 66 67 69 69 68 70 70 68 64 65 67 67 67 69 61
15 19 18 19 17 16 24 27 40 44 45 47 52 56 57 56 54 51 54 57 61 62 63 65 67 69 69 69 69 68 70 66 65 65 66 69 67 70 69 69 69 69 68 64 67 68 69 66 64
18 18 19 20 13 16 28 28 39 44 46 48 50 55 59 58 56 57 54 55 59 61 63 64 66 69 70 70 70 69 67 67 64 65 66 68 65 66 70 69 69 69 68 67 67 67 69 68 65
19 17 13 9 10 16 29 34 42 45 47 48 49 52 58 59 59 56 56 56 58 60 63 63 65 68 69 70 70 70 69 69 68 68 66 65 64 64 65 69 69 69 69 69 70 69 69 69 67
20 16 11 13 12 18 29 37 42 46 47 49 50 51 55 59 60 61 60 60 61 61 63 64 64 67 69 69 69 70 70 69 68 68 67 66 66 67 66 66 70 69 70 70 68 71 69 67 67
22 21 20 13 14 13 30 41 44 46 47 48 50 51 52 56 60 62 62 63 62 63 64 65 66 67 68 68 69 70 70 70 67 68 67 68 68 67 67 69 70 68 67 69 70 70 67 69 69
24 24 22 19 18 16 23 34 38 45 46 47 49 51 52 54 57 61 63 64 65 64 64 65 67 67 68 68 68 69 69 70 70 69 69 69 68 69 69 69 69 68 68 69 70 69 69 69 68
28 27 27 24 24 21 21 33 47 47 47 45 46 50 53 54 55 56 59 63 64 65 65 66 67 67 67 67 68 68 68 69 70 70 70 70 70 70 70 71 70 69 68 69 71 70 69 70 68
33 31 29 25 28 28 25 34 47 47 46 45 46 48 49 52 54 55 55 57 61 63 65 66 66 67 67 69 68 68 69 68 68 69 69 70 70 70 70 70 71 70 69 70 70 68 68 70 69
Wind_Speed
10 6 4 6 5 2 10 8 4 7 6 7 7 1 4 7 7 4 14 15 24 24 24 20 16 15 15 15 16 16 18 16 13 12 11 9 8 7 6 4 3 5 6 6 8 8 9 10 12
4 2 5 3 6 7 11 5 9 8 6 3 6 3 1 6 8 7 17 18 24 24 24 22 16 16 16 16 17 16 16 16 14 12 10 9 7 6 4 3 2 3 4 5 6 7 8 10 11
3 4 4 4 4 11 11 6 8 7 3 2 3 3 3 4 6 17 16 23 22 21 22 21 17 16 17 16 16 16 15 15 14 10 9 7 6 5 4 2 2 1 2 5 6 7 8 9 10
4 5 4 4 9 6 6 5 7 6 5 2 1 7 7 7 8 7 24 24 21 21 20 24 18 18 17 16 15 15 14 13 11 10 8 6 5 3 2 1 1 1 3 4 4 6 7 9 10
4 3 1 4 5 4 3 4 1 2 2 1 2 6 7 7 7 20 23 20 19 18 18 21 18 17 16 16 15 14 13 12 10 9 7 5 4 3 1 1 1 2 5 4 3 4 5 6 6
4 2 4 13 12 6 2 0 1 2 2 3 4 8 7 4 16 22 22 19 18 17 19 19 18 17 16 15 14 14 13 12 10 8 7 6 5 4 3 2 2 2 4 4 4 3 3 4 4
5 3 7 7 9 7 7 1 2 2 2 1 5 6 6 10 18 20 20 18 18 16 17 18 18 17 16 15 13 13 13 12 10 8 7 7 6 6 5 4 4 4 4 5 4 4 3 3 4
4 3 4 6 11 10 6 1 2 1 5 7 6 6 10 16 19 20 19 18 16 15 14 16 12 18 17 16 15 12 13 12 11 10 9 8 7 7 8 5 7 5 6 6 5 4 3 3 3
1 1 10 9 10 8 2 1 3 2 6 2 3 3 16 24 19 21 20 19 16 13 14 14 17 12 13 13 13 11 9 8 9 10 10 10 12 9 5 0 3 5 6 5 3 3 3 4 5
3 4 8 6 8 9 2 1 2 3 4 5 6 12 23 25 22 23 21 20 20 18 17 14 13 15 13 10 9 9 10 10 10 7 7 10 3 0 3 2 4 7 10 6 4 3 5 9 5
2 7 8 6 7 7 3 1 3 2 2 3 9 16 22 22 21 21 22 21 21 20 18 14 10 11 13 10 13 10 10 8 7 5 5 7 4 5 8 6 7 5 10 7 6 3 5 6 4
2 4 6 8 6 6 5 3 1 2 5 6 11 17 21 22 20 20 21 21 20 19 18 14 12 13 11 8 10 8 7 7 7 7 6 4 7 5 2 8 7 7 8 6 4 8 8 5 3
3 9 9 10 10 6 0 1 1 3 5 10 15 18 20 21 19 17 18 18 17 19 18 18 18 13 10 9 9 7 6 7 7 6 8 5 5 3 4 2 3 6 7 6 5 5 4 4 5
10 10 8 8 6 1 4 0 4 4 10 14 16 18 19 19 19 17 17 17 17 17 18 17 19 15 12 11 7 7 8 7 7 7 7 8 6 3 3 4 4 8 7 4 5 4 1 2 3
8 6 6 13 6 4 6 4 1 10 13 16 16 16 18 18 19 18 18 17 18 18 18 18 17 16 14 12 10 9 7 8 8 8 7 8 7 6 5 4 5 3 2 4 5 4 2 4 3
7 2 5 8 9 5 5 17 19 5 9 16 18 18 18 18 19 18 18 17 16 16 16 17 16 17 14 12 10 9 8 8 8 8 8 9 8 6 5 5 3 4 4 4 4 4 3 4 3
3 7 7 6 5 4 5 16 21 6 7 8 11 13 15 16 16 17 18 18 17 17 15 17 17 16 14 11 9 8 7 9 9 8 9 9 9 7 7 6 3 4 5 2 4 4 1 1 2
6 7 7 6 6 8 12 14 20 14 2 4 9 11 13 15 17 17 18 18 18 17 17 17 16 15 12 12 10 9 8 9 9 10 9 8 10 8 7 7 5 6 6 3 3 0 4 4 4
6 8 7 3 5 6 13 16 18 18 16 4 5 10 13 14 14 16 17 18 18 17 18 18 19 16 15 13 13 12 12 11 11 10 9 9 10 9 8 9 7 7 7 4 6 4 3 3 2
6 7 5 5 5 0 11 18 16 19 17 12 9 6 8 12 16 17 19 20 21 21 20 19 19 19 18 15 14 13 12 11 12 11 10 12 11 11 11 10 9 8 9 6 7 3 7 3 1
11 9 7 5 4 5 4 13 19 15 19 17 14 8 6 8 15 18 19 21 22 22 22 23 22 21 21 18 13 12 9 10 7 9 11 12 12 12 13 13 12 9 10 10 6 6 5 7 2
13 4 3 3 8 3 5 9 19 15 20 22 20 17 12 9 7 15 18 19 21 22 22 22 22 23 21 21 17 18 15 14 14 12 11 11 13 14 13 13 12 11 11 9 8 7 7 5 6
11 5 4 6 9 7 2 2 12 13 20 24 23 22 19 14 7 7 16 17 19 19 20 21 22 23 21 22 21 19 17 16 14 12 12 11 13 13 15 14 14 13 13 12 11 8 7 6 8
5 10 12 8 8 8 5 4 14 12 18 19 22 23 23 22 17 1 8 11 14 15 17 18 21 23 23 21 22 21 19 19 15 15 14 12 14 16 17 16 15 14 13 13 12 12 10 11 7
11 14 8 9 10 8 4 8 7 10 13 16 19 22 23 22 22 15 5 3 8 10 13 14 17 19 22 24 23 23 22 20 19 17 15 16 14 15 14 14 15 15 16 14 11 10 13 9 11
11 10 4 4 4 13 3 8 7 9 11 14 16 19 21 22 22 21 17 7 2 5 11 14 15 17 20 22 23 22 22 20 21 20 18 18 17 13 13 13 15 15 16 13 16 13 13 16 14
8 7 8 2 3 8 9 9 8 7 11 13 16 19 22 22 22 21 19 17 9 2 4 8 11 13 17 19 19 20 20 22 20 19 18 19 18 17 15 13 14 15 17 16 16 14 17 16 13
6 3 7 6 4 8 10 10 9 5 8 11 15 17 19 21 22 21 20 19 16 11 3 3 7 10 12 14 16 17 18 19 20 19 19 19 17 16 17 17 16 17 17 19 18 17 18 15 15
5 10 1 6 7 10 8 9 7 7 7 9 13 14 16 17 19 19 19 19 18 16 11 4 3 6 8 11 13 15 17 19 19 20 20 20 18 17 19 19 20 20 20 18 17 19 18 17 19
2 1 8 10 2 2 12 5 8 8 8 7 10 12 13 14 14 15 17 17 17 14 15 17 13 11 10 7 10 15 16 18 19 20 19 18 19 17 19 19 19 20 19 20 21 23 20 20 21
Wind_Direction
161 195 203 232 230 177 56 63 58 80 82 57 110 42 33 23 21 61 136 146 150 155 152 162 155 150 140 136 136 148 148 145 144 144 141 140 129 116 109 101 90 86 93 97 96 99 98 98 101
142 190 230 276 305 52 71 54 57 58 79 115 116 139 30 77 56 126 141 152 154 153 153 159 155 152 146 142 137 145 147 144 146 148 143 136 128 116 101 87 64 66 85 90 90 108 116 113 113
194 253 282 307 355 46 56 74 103 90 77 111 97 24 25 45 82 146 134 155 157 153 157 145 155 153 154 151 144 142 145 144 145 149 144 142 130 114 95 55 32 54 117 113 104 102 113 119 120
274 195 221 352 55 62 25 70 111 112 84 65 62 91 97 23 144 141 146 156 155 155 161 138 157 156 160 163 156 150 151 151 152 155 154 148 145 146 128 74 301 132 125 125 108 98 110 113 115
254 255 53 83 60 38 27 42 160 169 85 104 204 119 91 61 118 138 150 158 150 159 147 155 163 161 161 167 164 159 161 163 165 162 162 168 178 182 193 275 200 124 137 127 127 111 125 128 126
242 293 95 64 62 42 11 350 180 232 1 121 140 128 83 116 142 147 154 157 149 160 145 152 164 166 166 171 169 164 169 172 172 176 179 189 207 206 214 246 227 210 172 160 157 146 144 149 160
316 309 60 48 35 44 14 29 259 359 90 92 127 118 99 162 146 151 156 152 156 156 152 157 167 171 174 178 178 176 176 178 177 187 199 211 217 226 240 249 243 214 218 188 185 184 179 178 186
311 296 74 55 23 39 16 24 39 32 74 109 162 147 162 164 153 153 157 155 161 157 157 166 169 168 173 171 184 181 182 186 186 199 210 216 227 232 231 245 230 230 231 222 200 209 217 211 214
348 234 54 29 10 7 33 304 69 83 125 104 117 73 126 153 152 157 159 161 163 164 179 179 173 161 178 163 172 179 183 188 186 200 215 216 230 189 202 113 356 282 266 267 242 241 204 219 206
319 28 21 350 351 342 16 298 139 166 129 124 117 110 131 146 163 166 165 169 175 176 177 181 174 168 180 177 167 190 178 197 204 199 184 232 210 166 342 55 17 348 299 265 289 251 216 229 236
57 18 356 354 331 329 20 215 176 266 129 125 160 147 147 156 168 173 176 180 179 177 173 182 182 176 178 178 186 185 187 198 188 195 222 215 215 183 190 133 136 226 263 286 271 218 253 262 264
310 6 345 325 340 309 338 99 108 242 76 94 141 155 156 166 173 180 180 180 177 182 178 179 181 182 192 184 200 186 192 190 201 189 202 219 216 181 223 132 170 229 244 229 260 278 265 230 228
299 343 340 329 300 277 167 212 316 198 147 131 139 158 166 172 173 178 182 176 182 187 185 173 194 187 191 201 201 196 210 201 192 190 193 226 222 207 220 155 184 237 207 246 205 240 252 242 225
331 315 333 358 1 67 269 194 231 126 161 143 151 164 168 174 175 171 180 179 186 189 189 181 190 194 196 201 209 214 207 202 196 196 195 208 235 206 257 244 244 204 229 265 257 258 346 298 251
307 322 116 30 21 28 308 216 138 142 156 155 161 170 171 175 176 181 180 184 189 190 190 191 190 192 198 198 201 215 218 206 208 203 192 211 221 200 277 280 285 320 329 236 276 283 286 284 232
308 203 62 41 17 18 294 53 33 127 177 174 170 173 180 182 181 184 186 189 190 190 200 197 194 196 195 202 196 218 214 222 213 210 199 211 219 234 247 258 285 13 299 264 196 236 301 258 252
171 7 25 86 32 27 0 10 0 352 205 185 185 185 188 188 194 188 191 194 190 192 194 201 199 201 191 209 212 216 210 216 210 207 208 194 225 230 250 266 278 309 307 275 299 309 313 257 338
14 338 346 3 32 38 46 37 19 11 182 201 176 203 206 199 201 199 201 197 200 190 187 204 202 206 204 201 212 214 207 208 207 207 213 209 223 233 241 250 278 284 287 270 321 44 310 305 313
312 312 309 343 76 74 62 47 36 35 38 60 185 203 215 222 201 202 206 204 201 201 197 195 200 197 194 205 209 209 213 206 211 218 216 217 229 235 231 251 250 249 260 296 290 284 253 300 295
276 288 290 297 94 258 77 64 53 49 45 45 28 333 251 229 212 200 206 207 206 200 203 204 204 197 201 203 213 219 226 221 219 217 214 227 231 231 234 242 256 264 267 239 261 275 304 266 62
245 288 342 333 335 148 208 70 48 54 52 42 38 12 321 279 248 208 205 207 207 208 205 204 204 201 200 210 191 213 232 250 238 238 219 232 228 230 230 245 250 261 254 251 234 238 261 296 294
277 69 307 293 299 10 325 114 42 33 41 38 29 28 15 348 242 227 207 208 209 207 208 209 206 205 202 198 202 206 216 219 225 226 233 233 225 233 232 230 235 238 255 253 250 236 268 253 273
292 332 301 302 287 256 86 181 33 33 22 24 24 25 24 19 358 265 220 211 213 203 208 207 207 208 209 199 208 207 208 218 241 230 234 216 238 239 234 231 232 234 240 243 260 273 238 241 273
296 268 250 252 239 177 12 256 48 22 8 12 20 23 23 21 16 359 250 215 216 207 208 205 203 207 206 206 208 212 215 217 224 221 235 221 235 234 227 237 235 240 243 245 250 252 253 258 264
240 244 249 198 190 59 95 68 57 41 28 23 23 25 25 27 30 40 85 190 226 210 204 211 211 212 209 208 207 214 219 217 221 228 227 243 244 236 231 222 238 235 230 245 245 260 264 239 254
206 306 298 200 218 118 174 138 106 84 53 41 37 35 31 31 34 36 29 42 17 227 209 212 209 214 212 215 217 216 218 224 224 224 227 237 234 248 243 242 232 247 257 244 239 222 229 248 235
157 242 13 250 180 231 113 106 150 98 59 44 38 36 35 32 31 32 34 21 16 356 227 220 218 214 222 216 220 223 222 228 234 236 232 227 235 248 256 250 243 243 252 247 242 239 241 235 235
296 25 247 225 204 243 159 172 102 120 51 44 42 38 37 37 34 30 29 29 21 9 22 252 224 226 230 227 220 223 225 229 239 244 240 246 250 240 241 232 236 242 243 248 246 234 236 237 240
185 207 221 316 307 312 240 137 109 108 72 55 49 42 37 33 35 35 30 27 23 20 17 11 282 235 233 233 232 228 225 224 227 234 240 240 240 240 246 250 239 227 238 239 241 245 248 231 233
281 339 268 314 140 217 301 77 126 114 92 60 52 40 34 37 28 27 27 28 28 24 16 17 21 12 350 323 252 245 243 242 233 222 228 237 239 234 241 244 249 244 235 234 230 234 239 232 230